timestamp,wind_dir_avg,wind_spd_avg,wind_spd_max_dir,wind_spd_gust,battery_voltage,lat,long
2022-11-15 00:04:01+00:00,248.0,14.35,249.0,16.32,12.25,47.59359,-54.27349
2022-11-15 00:14:01+00:00,254.0,14.33,252.0,16.24,12.25,47.59359,-54.27349
2022-11-15 00:24:01+00:00,246.0,14.22,249.0,17.02,12.25,47.59359,-54.27349
2022-11-15 00:34:01+00:00,244.0,14.31,248.0,16.0,12.25,47.59359,-54.27349
2022-11-15 00:44:01+00:00,240.0,14.86,238.0,17.12,12.25,47.59359,-54.27349
2022-11-15 00:54:01+00:00,249.0,13.97,253.0,15.62,12.25,47.59359,-54.27349
2022-11-15 01:04:01+00:00,245.0,14.76,241.0,17.27,12.25,47.59359,-54.27349
2022-11-15 01:14:01+00:00,251.0,15.27,257.0,21.51,12.25,47.59359,-54.27349
2022-11-15 01:24:01+00:00,250.0,15.68,243.0,18.14,12.25,47.59359,-54.27349
2022-11-15 01:34:01+00:00,243.0,14.61,246.0,16.11,12.25,47.59359,-54.27349
2022-11-15 01:44:01+00:00,261.0,17.38,254.0,22.36,12.25,47.59359,-54.27349
2022-11-15 01:54:01+00:00,257.0,17.65,254.0,21.86,12.25,47.59359,-54.27349
2022-11-15 02:04:01+00:00,260.0,15.42,263.0,21.33,12.25,47.59359,-54.27349
2022-11-15 02:14:00+00:00,267.0,19.78,261.0,21.73,12.25,47.59359,-54.27349
2022-11-15 02:24:00+00:00,257.0,16.08,257.0,20.57,12.25,47.59359,-54.27349
2022-11-15 02:34:00+00:00,260.0,16.45,265.0,21.38,12.25,47.59359,-54.27349
2022-11-15 02:44:00+00:00,255.0,17.05,261.0,21.57,12.25,47.59359,-54.27349
2022-11-15 02:54:00+00:00,260.0,17.13,270.0,21.41,12.25,47.59359,-54.27349
2022-11-15 03:04:00+00:00,263.0,13.73,255.0,15.67,12.25,47.59359,-54.27349
2022-11-15 03:14:01+00:00,259.0,14.06,254.0,15.99,12.25,47.59359,-54.27349
2022-11-15 03:24:01+00:00,265.0,14.12,263.0,15.82,12.25,47.59359,-54.27349
2022-11-15 03:34:01+00:00,261.0,13.16,255.0,15.2,12.25,47.59359,-54.27349
2022-11-15 03:44:01+00:00,259.0,13.29,262.0,14.91,12.25,47.59359,-54.27349
2022-11-15 03:54:01+00:00,269.0,12.86,269.0,14.77,12.25,47.59359,-54.27349
2022-11-15 04:04:01+00:00,268.0,13.51,270.0,14.76,12.25,47.59359,-54.27349
2022-11-15 04:14:00+00:00,273.0,13.52,270.0,15.11,12.17,47.59359,-54.27349
2022-11-15 04:24:00+00:00,272.0,14.93,276.0,20.34,12.17,47.59359,-54.27349
2022-11-15 04:34:00+00:00,273.0,15.51,275.0,19.6,12.17,47.59359,-54.27349
2022-11-15 04:44:00+00:00,276.0,13.43,279.0,15.0,12.17,47.59359,-54.27349
2022-11-15 04:54:00+00:00,275.0,13.68,275.0,15.5,12.17,47.59359,-54.27349
2022-11-15 05:04:00+00:00,274.0,13.4,280.0,15.77,12.17,47.59359,-54.27349
2022-11-15 05:14:00+00:00,281.0,17.03,289.0,21.94,12.17,47.59359,-54.27349
2022-11-15 05:24:00+00:00,279.0,14.2,283.0,15.73,12.17,47.59359,-54.27349
2022-11-15 05:34:00+00:00,280.0,16.01,282.0,19.72,12.17,47.59359,-54.27349
2022-11-15 05:44:00+00:00,279.0,15.25,283.0,17.98,12.17,47.59359,-54.27349
2022-11-15 05:54:00+00:00,281.0,15.72,281.0,17.97,12.17,47.59359,-54.27349
2022-11-15 06:04:00+00:00,279.0,13.08,271.0,14.73,12.17,47.59359,-54.27349
2022-11-15 06:14:00+00:00,279.0,13.55,285.0,15.65,12.17,47.59359,-54.27349
2022-11-15 06:24:00+00:00,278.0,13.46,281.0,15.29,12.17,47.59359,-54.27349
2022-11-15 06:34:00+00:00,278.0,14.59,283.0,17.0,12.17,47.59359,-54.27349
2022-11-15 06:44:00+00:00,274.0,14.13,278.0,16.57,12.17,47.59359,-54.27349
2022-11-15 06:54:00+00:00,271.0,14.57,271.0,17.28,12.17,47.59359,-54.27349
2022-11-15 07:04:00+00:00,276.0,12.55,280.0,14.27,12.17,47.59359,-54.27349
2022-11-15 07:14:00+00:00,282.0,11.87,275.0,14.28,12.17,47.59359,-54.27349
2022-11-15 07:24:00+00:00,284.0,12.28,284.0,14.53,12.17,47.59359,-54.27349
2022-11-15 07:34:00+00:00,286.0,12.52,285.0,14.62,12.17,47.59359,-54.27349
2022-11-15 07:44:00+00:00,288.0,11.64,280.0,14.24,12.17,47.59359,-54.27349
2022-11-15 07:54:00+00:00,304.0,9.15,301.0,12.76,12.17,47.59359,-54.27349
2022-11-15 08:04:00+00:00,314.0,9.8,315.0,11.44,12.17,47.59359,-54.27349
2022-11-15 08:14:01+00:00,319.0,9.27,327.0,12.76,12.09,47.59359,-54.27349
2022-11-15 08:24:01+00:00,322.0,8.83,331.0,11.67,12.09,47.59359,-54.27349
2022-11-15 08:34:01+00:00,318.0,7.71,314.0,9.76,12.09,47.59359,-54.27349
2022-11-15 08:44:01+00:00,315.0,8.57,315.0,10.03,12.09,47.59359,-54.27349
2022-11-15 08:54:01+00:00,319.0,7.9,320.0,10.17,12.09,47.59359,-54.27349
2022-11-15 09:04:01+00:00,318.0,6.99,314.0,8.34,12.09,47.59359,-54.27349
2022-11-15 09:14:00+00:00,307.0,7.23,304.0,8.01,12.09,47.59359,-54.27349
2022-11-15 09:24:00+00:00,304.0,7.78,294.0,9.73,12.09,47.59359,-54.27349
2022-11-15 09:34:00+00:00,306.0,10.21,305.0,11.99,12.09,47.59359,-54.27349
2022-11-15 09:44:00+00:00,311.0,10.04,310.0,11.61,12.09,47.59359,-54.27349
2022-11-15 09:54:00+00:00,318.0,8.56,309.0,10.3,12.09,47.59359,-54.27349
2022-11-15 10:04:00+00:00,311.0,8.1,303.0,9.23,12.09,47.59359,-54.27349
2022-11-15 10:14:01+00:00,306.0,8.81,306.0,10.67,12.09,47.59359,-54.27349
2022-11-15 10:24:01+00:00,315.0,9.32,305.0,11.61,12.09,47.59359,-54.27349
2022-11-15 10:34:01+00:00,308.0,8.93,309.0,11.61,12.09,47.59359,-54.27349
2022-11-15 10:44:01+00:00,322.0,7.6,302.0,10.79,12.09,47.59359,-54.27349
2022-11-15 10:54:01+00:00,317.0,5.98,307.0,7.66,12.09,47.59359,-54.27349
2022-11-15 11:04:01+00:00,302.0,5.66,295.0,7.29,12.09,47.59359,-54.27349
2022-11-15 11:14:00+00:00,305.0,7.46,292.0,10.59,12.33,47.59359,-54.27349
2022-11-15 11:24:00+00:00,320.0,6.62,304.0,10.02,12.33,47.59359,-54.27349
2022-11-15 11:34:00+00:00,317.0,5.68,327.0,6.9,12.33,47.59359,-54.27349
2022-11-15 11:44:00+00:00,317.0,7.42,307.0,10.68,12.33,47.59359,-54.27349
2022-11-15 11:54:00+00:00,305.0,6.77,299.0,11.2,12.33,47.59359,-54.27349
2022-11-15 12:04:00+00:00,313.0,6.31,302.0,8.25,12.33,47.59359,-54.27349
2022-11-15 12:14:01+00:00,325.0,8.17,316.0,11.25,13.6,47.59359,-54.27349
2022-11-15 12:24:01+00:00,312.0,8.82,303.0,11.95,13.6,47.59359,-54.27349
2022-11-15 12:34:01+00:00,303.0,8.15,292.0,10.73,13.6,47.59359,-54.27349
2022-11-15 12:44:01+00:00,320.0,6.99,305.0,10.2,13.6,47.59359,-54.27349
2022-11-15 12:54:01+00:00,302.0,9.31,300.0,11.65,13.6,47.59359,-54.27349
2022-11-15 13:04:01+00:00,329.0,6.34,335.0,7.8,13.6,47.59359,-54.27349
2022-11-15 13:14:01+00:00,328.0,7.92,329.0,9.0,13.53,47.59359,-54.27349
2022-11-15 13:24:01+00:00,306.0,6.96,289.0,9.64,13.53,47.59359,-54.27349
2022-11-15 13:34:01+00:00,311.0,6.65,293.0,10.11,13.53,47.59359,-54.27349
2022-11-15 13:44:01+00:00,317.0,6.29,326.0,7.97,13.53,47.59359,-54.27349
2022-11-15 13:54:01+00:00,322.0,8.25,315.0,10.08,13.53,47.59359,-54.27349
2022-11-15 14:04:01+00:00,313.0,10.22,313.0,11.42,13.53,47.59359,-54.27349
2022-11-15 14:14:01+00:00,320.0,8.54,307.0,10.67,13.53,47.59359,-54.27349
2022-11-15 14:24:01+00:00,321.0,8.82,313.0,10.03,13.53,47.59359,-54.27349
2022-11-15 14:34:01+00:00,317.0,10.05,316.0,11.37,13.53,47.59359,-54.27349
2022-11-15 14:44:01+00:00,320.0,9.12,315.0,10.85,13.53,47.59359,-54.27349
2022-11-15 14:54:01+00:00,308.0,8.62,307.0,9.52,13.53,47.59359,-54.27349
2022-11-15 15:04:01+00:00,333.0,8.23,326.0,10.13,13.53,47.59359,-54.27349
2022-11-15 15:14:00+00:00,329.0,8.81,335.0,9.75,14.64,47.59359,-54.27349
2022-11-15 15:24:00+00:00,323.0,7.37,320.0,8.89,14.64,47.59359,-54.27349
2022-11-15 15:34:00+00:00,333.0,8.98,330.0,11.44,14.64,47.59359,-54.27349
2022-11-15 15:44:00+00:00,317.0,8.61,316.0,10.02,14.64,47.59359,-54.27349
2022-11-15 15:54:00+00:00,326.0,9.04,324.0,13.25,14.64,47.59359,-54.27349
2022-11-15 16:04:00+00:00,317.0,6.28,305.0,7.59,14.64,47.59359,-54.27349
2022-11-15 16:14:00+00:00,336.0,8.03,336.0,9.91,13.76,47.59359,-54.27349
2022-11-15 16:24:00+00:00,312.0,6.6,311.0,8.26,13.76,47.59359,-54.27349
2022-11-15 16:34:00+00:00,300.0,7.24,302.0,8.33,13.76,47.59359,-54.27349
2022-11-15 16:44:00+00:00,306.0,9.03,308.0,10.11,13.76,47.59359,-54.27349
2022-11-15 16:54:00+00:00,295.0,8.29,290.0,9.29,13.76,47.59359,-54.27349
2022-11-15 17:04:00+00:00,309.0,6.85,310.0,7.64,13.76,47.59359,-54.27349
2022-11-15 17:14:00+00:00,329.0,8.47,334.0,10.14,14.16,47.59359,-54.27349
2022-11-15 17:24:00+00:00,309.0,6.59,301.0,8.26,14.16,47.59359,-54.27349
2022-11-15 17:34:00+00:00,315.0,8.64,314.0,9.72,14.16,47.59359,-54.27349
2022-11-15 17:44:00+00:00,303.0,7.37,299.0,8.71,14.16,47.59359,-54.27349
2022-11-15 17:54:00+00:00,324.0,7.0,323.0,8.36,14.16,47.59359,-54.27349
2022-11-15 18:04:00+00:00,314.0,6.26,312.0,7.38,14.16,47.59359,-54.27349
2022-11-15 18:14:01+00:00,328.0,7.04,334.0,8.03,14.4,47.59359,-54.27349
2022-11-15 18:24:01+00:00,304.0,6.78,295.0,7.51,14.4,47.59359,-54.27349
2022-11-15 18:34:01+00:00,303.0,5.99,294.0,7.38,14.4,47.59359,-54.27349
2022-11-15 18:44:01+00:00,301.0,7.48,307.0,8.63,14.4,47.59359,-54.27349
2022-11-15 18:54:01+00:00,302.0,7.45,304.0,8.13,14.4,47.59359,-54.27349
2022-11-15 19:04:01+00:00,301.0,5.23,291.0,6.26,14.4,47.59359,-54.27349
2022-11-15 19:14:01+00:00,326.0,5.14,337.0,5.88,13.21,47.59359,-54.27349
2022-11-15 19:24:01+00:00,339.0,5.42,345.0,5.97,13.21,47.59359,-54.27349
2022-11-15 19:34:01+00:00,333.0,5.63,330.0,6.86,13.21,47.59359,-54.27349
2022-11-15 19:44:01+00:00,320.0,6.63,321.0,7.76,13.21,47.59359,-54.27349
2022-11-15 19:54:01+00:00,317.0,5.85,319.0,7.2,13.21,47.59359,-54.27349
2022-11-15 20:04:01+00:00,327.0,5.65,321.0,6.54,13.21,47.59359,-54.27349
2022-11-15 20:14:01+00:00,320.0,6.03,323.0,6.77,12.65,47.59359,-54.27349
2022-11-15 20:24:01+00:00,313.0,7.03,312.0,8.04,12.65,47.59359,-54.27349
2022-11-15 20:34:01+00:00,322.0,5.93,317.0,7.45,12.65,47.59359,-54.27349
2022-11-15 20:44:01+00:00,293.0,8.94,288.0,10.27,12.65,47.59359,-54.27349
2022-11-15 20:54:01+00:00,315.0,5.61,315.0,6.14,12.65,47.59359,-54.27349
2022-11-15 21:04:01+00:00,315.0,4.64,321.0,5.49,12.65,47.59359,-54.27349
2022-11-15 21:14:00+00:00,307.0,4.79,311.0,5.54,12.57,47.59359,-54.27349
2022-11-15 21:24:00+00:00,304.0,4.55,309.0,5.92,12.57,47.59359,-54.27349
2022-11-15 21:34:00+00:00,300.0,5.14,289.0,6.21,12.57,47.59359,-54.27349
2022-11-15 21:44:00+00:00,322.0,5.02,323.0,5.83,12.57,47.59359,-54.27349
2022-11-15 21:54:00+00:00,321.0,4.85,316.0,5.56,12.57,47.59359,-54.27349
2022-11-15 22:04:00+00:00,315.0,5.89,309.0,7.66,12.57,47.59359,-54.27349
2022-11-15 22:14:00+00:00,319.0,5.66,321.0,6.81,12.49,47.59359,-54.27349
2022-11-15 22:24:00+00:00,322.0,6.02,322.0,6.8,12.49,47.59359,-54.27349
2022-11-15 22:34:00+00:00,319.0,7.06,311.0,9.35,12.49,47.59359,-54.27349
2022-11-15 22:44:00+00:00,331.0,7.17,330.0,8.41,12.49,47.59359,-54.27349
2022-11-15 22:54:00+00:00,327.0,6.48,329.0,7.5,12.49,47.59359,-54.27349
2022-11-15 23:04:00+00:00,326.0,6.21,325.0,6.76,12.49,47.59359,-54.27349
2022-11-15 23:14:00+00:00,336.0,6.52,338.0,7.49,12.49,47.59359,-54.27349
2022-11-15 23:24:00+00:00,348.0,6.68,357.0,7.98,12.49,47.59359,-54.27349
2022-11-15 23:34:00+00:00,345.0,6.63,349.0,7.47,12.49,47.59359,-54.27349
2022-11-15 23:44:00+00:00,345.0,6.92,349.0,7.66,12.49,47.59359,-54.27349
2022-11-15 23:54:00+00:00,340.0,7.29,333.0,8.21,12.49,47.59359,-54.27349
